Location: Misciano
(43.5000°N, 11.9500°E)
Time: 07:57:46
(UTC+00:00)

Cosmos 1633 Rocket - Pass Details

Date: 13 August 2020
Orbit: 606 x 624 km, 82.5° (Epoch: 26 September)

Event Time Altitude Azimuth Distance (km) Brightness Sun altitude
Rises 18:57:41 0° 165° (SSE) 2,893 6.1 -7.4°
Reaches altitude 10° 19:00:02 10° 156° (SSE) 1,991 5.2 -7.8°
Maximum altitude 19:04:02 35° 91° (E) 1,017 3.7 -8.4°
Drops below altitude 10° 19:08:03 10° 26° (NNE) 2,000 5.7 -9.0°
Sets 19:10:25 0° 17° (NNE) 2,909 6.7 -9.4°
